Home > Weather > Hard > Past weeks

Flag for Austria Past Weather in Hard, Vorarlberg, Austria — Yesterday and Last 2 Weeks

Now
63 °F

Overcast.


Feels Like: 63 °F
Forecast: 61 / 82 °F
Wind: 5 mph from Southeast

Location: Bregenz

Current Time: Jun 30, 2016 at 8:50:29 AM

Latest Report: Jun 30, 2016 at 8:00 AM


Visibility: 9 mi

Pressure: 29.98 "Hg

Humidity: 89%

Dew Point: 60 °F

Location of HardLocation

Past Weather in Hard — Graph

°F

Hard Temperature Yesterday

Maximum temperature yesterday: 78 °F (at 6:00 PM)
Minimum temperature yesterday: 62 °F (at 5:00 AM)
Average temperature yesterday: 70 °F

High & Low Weather Summary for the Past Weeks

 TemperatureHumidityPressure
High88 °F (Jun 24, 7:00 PM)98% (Jun 19, 7:00 AM)30.27 "Hg (Jun 19, 7:00 AM)
Low47 °F (Jun 17, 8:00 AM)34% (Jun 28, 7:00 PM)29.58 "Hg (Jun 16, 6:00 AM)
Average64 °F76%30.02 "Hg
* Reported Jun 15 7:00 AM — Jun 30 7:00 AM, Hard, Weather by CustomWeather, © 2016

Note: Actual official high and low records may vary slightly from our data, if they occured in-between our weather recording intervals... More about our weather records

Advertising

Hard Weather History for the Previous 24 Hours

Scroll right to see more
 ConditionsComfort  
Time TempWeatherWind HumidityBarometerVisibility
7:00 AM
Thu, Jun 30
63 °FThunderstorms. Overcast.3 mph92%30.01 "Hg2 mi
6:00 AM64 °FFog.1 mph88%30.01 "HgN/A
5:00 AM65 °FMild.3 mph80%29.98 "HgN/A
4:00 AM64 °FMild.1 mph82%29.97 "HgN/A
3:00 AM67 °FMild.6 mph68%29.93 "HgN/A
2:00 AM64 °FMild.2 mph95%29.92 "HgN/A
1:00 AM64 °FMild.2 mph95%29.91 "HgN/A
12:00 AM64 °FMild.2 mph95%29.92 "HgN/A
11:00 PM
Wed, Jun 29
67 °FMild.3 mph88%29.92 "HgN/A
10:00 PM71 °FMild.1 mph73%29.89 "HgN/A
9:00 PM73 °FMild.1 mph72%29.88 "HgN/A
8:00 PM76 °FMild.1 mph55%29.87 "HgN/A
7:00 PM77 °FMild.2 mph54%29.87 "HgN/A
6:00 PM78 °FWarm.2 mph53%29.87 "HgN/A
5:00 PM78 °FWarm.2 mph50%29.89 "HgN/A
4:00 PM77 °FMild.2 mph53%29.92 "HgN/A
3:00 PM76 °FMild.3 mph50%29.93 "HgN/A
2:00 PM74 °FPassing clouds.2 mph57%29.95 "Hg11 mi
1:00 PM74 °FMild.2 mph55%29.97 "HgN/A
12:00 PM72 °FMild.2 mph55%29.98 "HgN/A
11:00 AM71 °FPartly sunny.2 mph64%30.00 "Hg12 mi
10:00 AM70 °FMild.2 mph64%30.00 "HgN/A
9:00 AM67 °FMild.1 mph72%30.02 "HgN/A
8:00 AM66 °FOvercast.1 mph76%30.01 "Hg12 mi
Weather by CustomWeather, © 2016

See weather overviewHow to use our weather pages